Bookmark and Share
Track history (hours):
 

Heroic Leader

Last reported at 2014-Apr-22 19:33 UTC. Time now 2014-Apr-23 09:47 UTC.
Position N 34°03' E 130°49'.

Length 200 m; draft 8 m.

Type: Cargo ship. MMSI: 311052700.

NotesDate/timePositionNaut miles runAvg speedWind from/ knotsBaromVisibWave heightAir tempDewpointWater temp
2014-Apr-22 19:33N 34°03' E 130°49'1512.3
2014-Apr-22 18:19N 34°14' E 130°37'12 0.2
2014-Apr-20 16:24N 34°05' E 130°27'  
2014-Apr-16 18:05N 21°53' E 113°49'814.0
2014-Apr-16 17:33N 22°00' E 113°52'1211.9
2014-Apr-16 16:33N 22°11' E 113°47'1514.6
2014-Apr-16 15:33N 22°26' E 113°45'1413.7
2014-Apr-16 14:33N 22°39' E 113°42'3 0.2
2014-Apr-16 02:27N 22°42' E 113°41'1313.3
2014-Apr-16 01:29N 22°30' E 113°45'1414.7
2014-Apr-16 00:33N 22°16' E 113°48'10 9.9
2014-Apr-15 23:33N 22°06' E 113°48'4 3.9
2014-Apr-15 22:28N 22°04' E 113°52'0 0.1
2014-Apr-15 21:28N 22°04' E 113°52'0 0.0
2014-Apr-15 20:22N 22°04' E 113°52'0 0.0
2014-Apr-15 19:10N 22°04' E 113°52'0 0.0
2014-Apr-15 17:22N 22°04' E 113°52'0 0.0
2014-Apr-15 16:22N 22°04' E 113°52'0 0.1
2014-Apr-15 15:28N 22°04' E 113°52'0 0.0
2014-Apr-15 09:34N 22°04' E 113°52'0 0.0
2014-Apr-15 08:34N 22°04' E 113°52'0 0.0
2014-Apr-15 07:33N 22°04' E 113°52'0 0.0
2014-Apr-15 06:31N 22°04' E 113°52'0 0.0
2014-Apr-15 05:32N 22°04' E 113°52'0 0.1
2014-Apr-15 03:33N 22°04' E 113°52'9 9.1
2014-Apr-15 02:33N 21°55' E 113°51'  

Dump ship's entire track history

sailing weather and tide predictions

Heroic Leader — C6ZD2 — position and weather